Regional Weather Roundup
Issued by NWS

Home | Current Version | Previous Version | Text Only | Print | Product List | Glossary On
Versions: 1 2 3 4 5 6 7 8 9 10 11 12 13 14 15 16 17 18 19 20 21 22 23 24 25 26 27 28 29 30 31 32 33 34 35 36 37 38 39 40 41 42 43 44 45 46 47 48 49 50
000
ASUS43 KLMK 011802
RWRKY
KENTUCKY REGIONAL WEATHER ROUNDUP
NATIONAL WEATHER SERVICE LOUISVILLE KY
100 PM EST WED MAR 01 2017

NOTE "FAIR" INDICATES FEW OR NO CLOUDS BELOW 12,000 FEET
WITH NO SIGNIFICANT WEATHER AND/OR OBSTRUCTIONS TO VISIBILITY.

KYZ001>023-026-027-061>063-070>075-011900-
WESTERN AND SOUTH CENTRAL KENTUCKY

CITY           SKY/WX    TMP DP  RH WIND       PRES   REMARKS
PADUCAH        SUNNY     62  43  49 NW22G28   29.86R
HENDERSON      PTSUNNY   57  46  67 W23G31    29.82R
OWENSBORO      CLOUDY    57  49  74 NW20      29.81R
HOPKINSVILLE   SUNNY     70  49  47 W17G26    29.79R
BOWLING GREEN  PTSUNNY   70  54  56 W15G24    29.76F
GLASGOW        NOT AVBL
$$

KYZ024-025-028>034-038-045-046-053-011900-
NORTH CENTRAL KENTUCKY

CITY           SKY/WX    TMP DP  RH WIND       PRES   REMARKS
LOUISVILLE/SDF PTSUNNY   64  51  62 W23G29    29.70R
LOUISVILLE/LOU MOSUNNY   66  51  58 W20G29    29.69S
FORT KNOX      PTSUNNY   65  54  65 W21G31    29.71R
$$

KYZ035>037-039>044-047>052-055>060-089>105-011900-
NORTHEAST KENTUCKY

CITY           SKY/WX    TMP DP  RH WIND       PRES   REMARKS
LEXINGTON      MOSUNNY   67  54  63 SW20G30   29.67F
COVINGTON      CLOUDY    60  51  72 W22G30    29.63S
FRANKFORT      PTSUNNY   65  52  62 W20G33    29.67S
$$

KYZ054-064>069-076>088-106>120-011900-
SOUTHEAST KENTUCKY

CITY           SKY/WX    TMP DP  RH WIND       PRES   REMARKS
JACKSON        CLOUDY    56  52  86 S10G20    29.75F
LONDON         PTSUNNY   58  54  86 SW9G18    29.77F
SOMERSET       MOSUNNY   61  54  77 SW14G20   29.78F
MIDDLESBORO    LGT RAIN  61  56  83 SW15G22   29.82F
MONTICELLO     LGT RAIN  61  57  87 SW23G30   29.81F
$$




USA.gov is the U.S. government's official web portal to all federal, state and local government web resources and services.